Time,TemperatureF,DewpointF,PressureIn,WindDirection,WindDirectionDegrees,WindSpeedMPH,WindSpeedGustMPH,Humidity,HourlyPrecipIn,Conditions,Clouds,dailyrainin,SolarRadiationWatts/m^2,SoftwareType,DateUTC
2013-07-28 00:02:00,48.1,47.0,29.91,NE,49,0.0,0.0,96,0.00,RA,,0.00,0.0,WeatherDisplay:10.37,2013-07-28 05:02:00,
2013-07-28 00:07:00,48.2,47.1,29.92,NE,49,0.0,0.0,96,0.00,RA,,0.00,0.0,WeatherDisplay:10.37,2013-07-28 05:07:00,
2013-07-28 00:12:00,48.2,47.1,29.92,NE,43,1.1,1.1,96,0.00,OVC,,0.00,0.0,WeatherDisplay:10.37,2013-07-28 05:12:00,
2013-07-28 00:17:00,48.2,47.1,29.92,NNE,30,1.0,1.0,96,0.00,OVC,,0.00,0.0,WeatherDisplay:10.37,2013-07-28 05:17:00,
2013-07-28 00:22:00,48.3,47.2,29.92,NNE,30,0.0,0.0,96,0.00,OVC,,0.00,0.0,WeatherDisplay:10.37,2013-07-28 05:22:00,
2013-07-28 00:27:00,48.3,47.2,29.92,NNE,28,1.0,0.0,96,0.00,OVC,,0.00,0.0,WeatherDisplay:10.37,2013-07-28 05:27:00,
2013-07-28 00:32:00,48.4,47.3,29.91,NNE,28,1.1,1.1,96,0.00,OVC,,0.00,0.0,WeatherDisplay:10.37,2013-07-28 05:32:00,
2013-07-28 00:37:00,48.5,47.4,29.91,NNE,28,0.0,0.0,96,0.00,OVC,,0.00,0.0,WeatherDisplay:10.37,2013-07-28 05:37:00,
2013-07-28 00:42:00,48.6,47.5,29.91,NNE,28,0.0,0.0,96,0.00,OVC,,0.00,0.0,WeatherDisplay:10.37,2013-07-28 05:42:00,
2013-07-28 00:47:00,48.6,47.5,29.91,NNE,28,0.0,0.0,96,0.00,OVC,,0.00,0.0,WeatherDisplay:10.37,2013-07-28 05:47:00,
2013-07-28 00:52:00,48.7,47.6,29.91,North,11,1.1,1.1,96,0.00,OVC,,0.00,0.0,WeatherDisplay:10.37,2013-07-28 05:52:00,
2013-07-28 00:57:00,48.8,47.7,29.91,North,11,1.1,1.1,96,0.00,OVC,,0.00,0.0,WeatherDisplay:10.37,2013-07-28 05:57:00,
2013-07-28 01:02:00,48.9,47.8,29.91,North,5,0.0,0.0,96,0.00,OVC,,0.00,0.0,WeatherDisplay:10.37,2013-07-28 06:02:00,
2013-07-28 01:07:00,48.9,47.8,29.91,North,5,0.0,0.0,96,0.00,OVC,,0.00,0.0,WeatherDisplay:10.37,2013-07-28 06:07:00,
2013-07-28 01:12:00,49.1,48.0,29.91,WNW,301,0.0,0.0,96,0.00,OVC,,0.00,0.0,WeatherDisplay:10.37,2013-07-28 06:12:00,
2013-07-28 01:17:00,49.2,48.1,29.91,WNW,301,0.0,0.1,96,0.00,OVC,,0.00,0.0,WeatherDisplay:10.37,2013-07-28 06:17:00,
2013-07-28 01:22:00,49.2,48.1,29.91,WNW,301,0.0,0.0,96,0.00,OVC,,0.00,0.0,WeatherDisplay:10.37,2013-07-28 06:22:00,
2013-07-28 01:27:00,49.3,48.2,29.91,WNW,301,1.1,0.0,96,0.00,OVC,,0.00,0.0,WeatherDisplay:10.37,2013-07-28 06:27:00,
2013-07-28 01:32:00,49.4,48.3,29.91,WNW,286,1.1,0.0,96,0.00,-RA,,0.00,0.0,WeatherDisplay:10.37,2013-07-28 06:32:00,
2013-07-28 01:37:00,49.4,48.3,29.91,WNW,286,0.0,0.2,96,0.00,-RA,,0.00,0.0,WeatherDisplay:10.37,2013-07-28 06:37:00,
2013-07-28 01:42:00,49.5,48.4,29.91,WNW,290,2.3,2.3,96,0.00,-RA,,0.00,0.0,WeatherDisplay:10.37,2013-07-28 06:42:00,
2013-07-28 01:47:00,49.5,48.4,29.91,WNW,287,1.1,0.0,96,0.00,-RA,,0.00,0.0,WeatherDisplay:10.37,2013-07-28 06:47:00,
2013-07-28 01:52:00,49.6,48.5,29.91,WNW,286,0.0,0.0,96,0.00,-RA,,0.00,0.0,WeatherDisplay:10.37,2013-07-28 06:52:00,
2013-07-28 01:57:00,49.6,48.5,29.90,WNW,286,0.0,0.0,96,0.00,-RA,,0.00,0.0,WeatherDisplay:10.37,2013-07-28 06:57:00,
2013-07-28 02:02:00,49.7,48.6,29.91,WNW,286,0.0,0.0,96,0.00,OVC,,0.00,0.0,WeatherDisplay:10.37,2013-07-28 07:02:00,
2013-07-28 02:07:00,49.8,48.7,29.91,WNW,286,0.0,0.0,96,0.00,OVC,,0.00,0.0,WeatherDisplay:10.37,2013-07-28 07:07:00,
2013-07-28 02:12:00,49.8,48.7,29.91,WNW,286,0.0,0.0,96,0.00,OVC,,0.00,0.0,WeatherDisplay:10.37,2013-07-28 07:12:00,
2013-07-28 02:17:00,49.8,48.7,29.91,WNW,286,0.0,0.0,96,0.00,OVC,,0.00,0.0,WeatherDisplay:10.37,2013-07-28 07:17:00,
2013-07-28 02:22:00,49.9,48.8,29.91,WNW,286,0.0,0.0,96,0.00,OVC,,0.00,0.0,WeatherDisplay:10.37,2013-07-28 07:22:00,
2013-07-28 02:28:00,49.9,48.8,29.91,WNW,285,1.1,1.1,96,0.00,OVC,,0.00,0.0,WeatherDisplay:10.37,2013-07-28 07:28:00,
2013-07-28 02:33:00,49.9,48.8,29.91,WSW,245,3.5,3.5,96,0.00,OVC,,0.00,0.0,WeatherDisplay:10.37,2013-07-28 07:33:00,
2013-07-28 02:38:00,49.9,48.8,29.91,WSW,245,1.1,1.1,96,0.00,OVC,,0.00,0.0,WeatherDisplay:10.37,2013-07-28 07:38:00,
2013-07-28 02:43:00,49.9,48.8,29.91,NNW,348,1.1,0.0,96,0.00,OVC,,0.00,0.0,WeatherDisplay:10.37,2013-07-28 07:43:00,
2013-07-28 02:48:00,50.0,48.9,29.91,NNW,348,1.1,1.1,96,0.00,OVC,,0.00,0.0,WeatherDisplay:10.37,2013-07-28 07:48:00,
2013-07-28 02:53:00,50.0,48.9,29.91,WNW,282,3.5,3.5,96,0.00,OVC,,0.00,0.0,WeatherDisplay:10.37,2013-07-28 07:53:00,
2013-07-28 02:58:00,50.0,48.9,29.90,WNW,282,0.0,0.0,96,0.00,OVC,,0.00,0.0,WeatherDisplay:10.37,2013-07-28 07:58:00,
2013-07-28 03:03:00,50.0,48.9,29.91,WNW,282,0.0,0.0,96,0.00,OVC,,0.00,0.0,WeatherDisplay:10.37,2013-07-28 08:03:00,
2013-07-28 03:08:00,50.1,49.0,29.90,WNW,282,0.0,0.0,96,0.00,OVC,,0.00,0.0,WeatherDisplay:10.37,2013-07-28 08:08:00,
2013-07-28 03:13:00,50.1,49.0,29.91,WNW,282,1.1,0.0,96,0.00,OVC,,0.00,0.0,WeatherDisplay:10.37,2013-07-28 08:13:00,
2013-07-28 03:18:00,50.1,49.0,29.91,WNW,282,0.0,0.0,96,0.00,OVC,,0.00,0.0,WeatherDisplay:10.37,2013-07-28 08:18:00,
2013-07-28 03:23:00,50.2,49.1,29.91,WNW,282,1.1,0.0,96,0.00,OVC,,0.00,0.0,WeatherDisplay:10.37,2013-07-28 08:23:00,
2013-07-28 03:28:00,50.3,49.2,29.91,WNW,282,0.0,0.0,96,0.00,OVC,,0.00,0.0,WeatherDisplay:10.37,2013-07-28 08:28:00,
2013-07-28 03:33:00,50.4,49.3,29.91,WNW,282,0.0,0.0,96,0.00,OVC,,0.00,0.0,WeatherDisplay:10.37,2013-07-28 08:33:00,
2013-07-28 03:38:00,50.5,49.4,29.91,North,355,2.3,2.3,96,0.00,OVC,,0.00,0.0,WeatherDisplay:10.37,2013-07-28 08:38:00,
2013-07-28 03:43:00,50.5,49.4,29.91,North,355,1.1,1.1,96,0.00,OVC,,0.00,0.0,WeatherDisplay:10.37,2013-07-28 08:43:00,
2013-07-28 03:48:00,50.5,49.4,29.91,NNW,331,0.0,0.0,96,0.00,OVC,,0.00,0.0,WeatherDisplay:10.37,2013-07-28 08:48:00,
2013-07-28 03:53:00,50.5,49.4,29.91,NNW,331,0.0,0.0,96,0.00,OVC,,0.00,0.0,WeatherDisplay:10.37,2013-07-28 08:53:00,
2013-07-28 03:58:00,50.6,49.5,29.91,NW,304,2.3,2.3,96,0.00,OVC,,0.00,0.0,WeatherDisplay:10.37,2013-07-28 08:58:00,
2013-07-28 04:03:00,50.6,49.5,29.91,WNW,298,1.1,1.1,96,0.00,OVC,,0.00,0.0,WeatherDisplay:10.37,2013-07-28 09:03:00,
2013-07-28 04:08:00,50.6,49.5,29.91,West,272,1.1,0.0,96,0.00,OVC,,0.00,0.0,WeatherDisplay:10.37,2013-07-28 09:08:00,
2013-07-28 04:13:00,50.6,49.5,29.91,West,272,2.3,2.3,96,0.00,OVC,,0.00,0.0,WeatherDisplay:10.37,2013-07-28 09:13:00,
2013-07-28 04:18:00,50.6,49.5,29.90,WNW,286,3.5,3.5,96,0.00,OVC,,0.00,0.0,WeatherDisplay:10.37,2013-07-28 09:18:00,
2013-07-28 04:23:00,50.6,49.5,29.90,West,270,3.5,3.5,96,0.00,OVC,,0.00,0.0,WeatherDisplay:10.37,2013-07-28 09:23:00,
2013-07-28 04:28:00,50.7,49.6,29.90,WNW,290,1.1,0.0,96,0.00,OVC,,0.00,0.0,WeatherDisplay:10.37,2013-07-28 09:28:00,
2013-07-28 04:33:00,50.8,49.7,29.90,NW,304,2.3,2.3,96,0.00,OVC,,0.00,0.0,WeatherDisplay:10.37,2013-07-28 09:33:00,
2013-07-28 04:38:00,50.8,49.7,29.90,West,267,1.1,1.1,96,0.00,OVC,,0.00,0.0,WeatherDisplay:10.37,2013-07-28 09:38:00,
2013-07-28 04:43:00,50.9,49.8,29.90,WNW,290,1.1,1.1,96,0.00,OVC,,0.00,0.0,WeatherDisplay:10.37,2013-07-28 09:43:00,
2013-07-28 04:48:00,51.0,49.9,29.91,SW,226,2.3,2.3,96,0.00,OVC,,0.00,0.0,WeatherDisplay:10.37,2013-07-28 09:48:00,
2013-07-28 04:53:00,51.0,49.9,29.90,NE,53,1.1,1.1,96,0.00,OVC,,0.00,0.0,WeatherDisplay:10.37,2013-07-28 09:53:00,
2013-07-28 04:58:00,51.0,49.9,29.90,ENE,60,1.1,0.0,96,0.00,OVC,,0.00,0.0,WeatherDisplay:10.37,2013-07-28 09:58:00,
2013-07-28 05:03:00,51.1,50.0,29.90,NE,51,1.1,0.0,96,0.00,OVC,,0.00,0.0,WeatherDisplay:10.37,2013-07-28 10:03:00,
2013-07-28 05:08:00,51.1,50.0,29.90,NE,40,0.0,0.0,96,0.00,OVC,,0.00,0.0,WeatherDisplay:10.37,2013-07-28 10:08:00,
2013-07-28 05:13:00,51.1,50.0,29.90,ENE,68,1.1,0.0,96,0.00,OVC,,0.00,0.0,WeatherDisplay:10.37,2013-07-28 10:13:00,
2013-07-28 05:18:00,51.2,50.1,29.90,NNE,12,1.0,1.0,96,0.00,OVC,,0.00,0.0,WeatherDisplay:10.37,2013-07-28 10:18:00,
2013-07-28 05:23:00,51.2,50.1,29.90,WSW,251,3.5,3.5,96,0.00,OVC,,0.00,0.0,WeatherDisplay:10.37,2013-07-28 10:23:00,
2013-07-28 05:28:00,51.3,50.2,29.90,WSW,240,3.5,3.5,96,0.00,OVC,,0.00,0.0,WeatherDisplay:10.37,2013-07-28 10:28:00,
2013-07-28 05:33:00,51.3,50.2,29.90,NE,44,1.0,1.0,96,0.00,OVC,,0.00,0.0,WeatherDisplay:10.37,2013-07-28 10:33:00,
2013-07-28 05:38:00,51.3,50.2,29.90,WSW,251,3.5,3.5,96,0.00,OVC,,0.00,0.0,WeatherDisplay:10.37,2013-07-28 10:38:00,
2013-07-28 05:43:00,51.4,50.3,29.90,West,273,5.8,5.8,96,0.00,OVC,,0.00,0.0,WeatherDisplay:10.37,2013-07-28 10:43:00,
2013-07-28 05:48:00,51.5,50.4,29.91,SSE,155,1.1,0.0,96,0.00,OVC,,0.00,0.0,WeatherDisplay:10.37,2013-07-28 10:48:00,
2013-07-28 05:53:00,51.5,50.4,29.91,SW,215,3.5,0.0,96,0.00,OVC,,0.00,0.0,WeatherDisplay:10.37,2013-07-28 10:53:00,
2013-07-28 05:58:00,51.6,50.5,29.91,NW,323,1.1,1.1,96,0.00,OVC,,0.00,0.0,WeatherDisplay:10.37,2013-07-28 10:58:00,
2013-07-28 06:03:00,51.6,50.5,29.91,NW,323,0.0,0.0,96,0.00,OVC,,0.00,0.0,WeatherDisplay:10.37,2013-07-28 11:03:00,
2013-07-28 06:08:00,51.7,50.6,29.91,NNW,327,3.5,3.5,96,0.00,OVC,,0.00,0.0,WeatherDisplay:10.37,2013-07-28 11:08:00,
2013-07-28 06:13:00,51.7,50.6,29.91,NW,305,1.1,1.1,96,0.00,OVC,,0.00,7.0,WeatherDisplay:10.37,2013-07-28 11:13:00,
2013-07-28 06:18:00,51.7,50.6,29.92,NW,325,1.1,0.0,96,0.00,OVC,,0.00,11.0,WeatherDisplay:10.37,2013-07-28 11:18:00,
2013-07-28 06:23:00,51.8,50.7,29.92,WNW,299,2.0,2.0,96,0.00,OVC,,0.00,11.0,WeatherDisplay:10.37,2013-07-28 11:23:00,
2013-07-28 06:28:00,51.8,50.7,29.92,NNE,28,3.5,3.5,96,0.00,OVC,,0.00,12.0,WeatherDisplay:10.37,2013-07-28 11:28:00,
2013-07-28 06:33:00,51.8,50.7,29.92,West,266,3.5,3.5,96,0.00,OVC,,0.00,16.0,WeatherDisplay:10.37,2013-07-28 11:33:00,
2013-07-28 06:38:00,51.8,50.7,29.92,West,267,2.3,2.3,96,0.00,OVC,,0.00,18.0,WeatherDisplay:10.37,2013-07-28 11:38:00,
2013-07-28 06:43:00,51.8,50.7,29.92,West,279,0.0,0.0,96,0.00,OVC,,0.00,11.0,WeatherDisplay:10.37,2013-07-28 11:43:00,
2013-07-28 06:48:00,51.9,50.8,29.92,WSW,240,3.5,3.5,96,0.00,OVC,,0.00,14.0,WeatherDisplay:10.37,2013-07-28 11:48:00,
2013-07-28 06:53:00,51.8,50.7,29.92,NNE,17,3.5,3.5,96,0.00,OVC,,0.00,23.0,WeatherDisplay:10.37,2013-07-28 11:53:00,
2013-07-28 06:58:00,51.8,50.7,29.92,NE,36,5.8,5.8,96,0.00,OVC,,0.00,32.0,WeatherDisplay:10.37,2013-07-28 11:58:00,
2013-07-28 07:03:00,51.8,50.7,29.92,SSW,205,3.0,3.0,96,0.00,OVC,,0.00,37.0,WeatherDisplay:10.37,2013-07-28 12:03:00,
2013-07-28 07:08:00,51.8,50.7,29.92,NNW,348,1.1,1.1,96,0.00,OVC,,0.00,42.0,WeatherDisplay:10.37,2013-07-28 12:08:00,
2013-07-28 07:13:00,51.8,50.7,29.93,ENE,61,1.1,1.1,96,0.00,OVC,,0.00,39.0,WeatherDisplay:10.37,2013-07-28 12:13:00,
2013-07-28 07:18:00,51.9,50.5,29.92,ENE,69,4.6,4.6,95,0.00,OVC,,0.00,47.0,WeatherDisplay:10.37,2013-07-28 12:18:00,
2013-07-28 07:24:00,51.8,50.4,29.92,ESE,103,2.0,2.0,95,0.00,OVC,,0.00,47.0,WeatherDisplay:10.37,2013-07-28 12:24:00,
2013-07-28 07:29:00,51.9,50.5,29.92,NE,42,2.3,2.3,95,0.00,OVC,,0.00,56.0,WeatherDisplay:10.37,2013-07-28 12:29:00,
2013-07-28 07:34:00,52.1,51.0,29.92,West,273,2.3,0.0,96,0.00,OVC,,0.00,90.0,WeatherDisplay:10.37,2013-07-28 12:34:00,
2013-07-28 07:39:00,52.2,51.1,29.92,NE,51,2.3,2.3,96,0.00,OVC,,0.00,88.0,WeatherDisplay:10.37,2013-07-28 12:39:00,
2013-07-28 07:44:00,52.4,51.3,29.92,NNE,13,2.3,2.3,96,0.00,OVC,,0.00,83.0,WeatherDisplay:10.37,2013-07-28 12:44:00,
2013-07-28 07:49:00,52.6,51.5,29.92,SW,224,3.5,3.5,96,0.00,OVC,,0.00,81.0,WeatherDisplay:10.37,2013-07-28 12:49:00,
2013-07-28 07:54:00,52.6,51.2,29.92,North,11,4.6,4.6,95,0.00,OVC,,0.00,60.0,WeatherDisplay:10.37,2013-07-28 12:54:00,
2013-07-28 07:59:00,52.6,51.2,29.92,SW,232,1.1,1.1,95,0.00,OVC,,0.00,74.0,WeatherDisplay:10.37,2013-07-28 12:59:00,
2013-07-28 08:04:00,52.7,51.3,29.93,NNW,329,3.5,0.0,95,0.00,OVC,,0.00,88.0,WeatherDisplay:10.37,2013-07-28 13:04:00,
2013-07-28 08:09:00,52.8,51.4,29.93,West,271,3.5,3.5,95,0.00,OVC,,0.00,81.0,WeatherDisplay:10.37,2013-07-28 13:09:00,
2013-07-28 08:14:00,53.0,51.6,29.93,NW,319,2.3,2.3,95,0.00,OVC,,0.00,93.0,WeatherDisplay:10.37,2013-07-28 13:14:00,
2013-07-28 08:19:00,53.1,51.7,29.93,NNE,29,1.1,1.1,95,0.00,OVC,,0.00,91.0,WeatherDisplay:10.37,2013-07-28 13:19:00,
2013-07-28 08:24:00,53.2,51.5,29.93,WNW,302,4.6,4.6,94,0.00,OVC,,0.00,114.0,WeatherDisplay:10.37,2013-07-28 13:24:00,
2013-07-28 08:29:00,53.3,51.6,29.93,West,265,3.5,3.5,94,0.00,OVC,,0.00,121.0,WeatherDisplay:10.37,2013-07-28 13:29:00,
2013-07-28 08:34:00,53.5,51.5,29.93,North,5,2.3,2.3,93,0.00,OVC,,0.00,116.0,WeatherDisplay:10.37,2013-07-28 13:34:00,
2013-07-28 08:39:00,53.6,51.6,29.93,NNE,30,1.1,1.1,93,0.00,OVC,,0.00,125.0,WeatherDisplay:10.37,2013-07-28 13:39:00,
2013-07-28 08:44:00,53.7,51.4,29.92,North,360,3.5,3.5,92,0.00,OVC,,0.00,151.0,WeatherDisplay:10.37,2013-07-28 13:44:00,
2013-07-28 08:49:00,53.9,51.6,29.93,ENE,59,3.5,3.5,92,0.00,OVC,,0.00,132.0,WeatherDisplay:10.37,2013-07-28 13:49:00,
2013-07-28 08:54:00,54.0,51.7,29.93,NW,318,3.5,3.5,92,0.00,OVC,,0.00,172.0,WeatherDisplay:10.37,2013-07-28 13:54:00,
2013-07-28 08:59:00,54.2,51.9,29.93,SSW,205,3.5,3.5,92,0.00,OVC,,0.00,155.0,WeatherDisplay:10.37,2013-07-28 13:59:00,
2013-07-28 09:04:00,54.4,51.8,29.92,SW,215,2.3,2.3,91,0.00,OVC,,0.00,158.0,WeatherDisplay:10.37,2013-07-28 14:04:00,
2013-07-28 09:09:00,54.6,52.0,29.92,ESE,108,2.3,2.3,91,0.00,OVC,,0.00,139.0,WeatherDisplay:10.37,2013-07-28 14:09:00,
2013-07-28 09:14:00,54.5,51.6,29.92,WNW,296,2.3,2.3,90,0.00,OVC,,0.00,111.0,WeatherDisplay:10.37,2013-07-28 14:14:00,
2013-07-28 09:19:00,54.5,51.6,29.92,North,5,3.5,3.5,90,0.00,OVC,,0.00,120.0,WeatherDisplay:10.37,2013-07-28 14:19:00,
2013-07-28 09:24:00,54.6,51.7,29.92,SW,232,3.5,3.5,90,0.00,OVC,,0.00,149.0,WeatherDisplay:10.37,2013-07-28 14:24:00,
2013-07-28 09:29:00,54.6,51.7,29.92,NNE,26,1.1,1.1,90,0.00,OVC,,0.00,186.0,WeatherDisplay:10.37,2013-07-28 14:29:00,
2013-07-28 09:34:00,54.8,51.9,29.92,NNE,28,3.5,3.5,90,0.00,OVC,,0.00,209.0,WeatherDisplay:10.37,2013-07-28 14:34:00,
2013-07-28 09:39:00,55.1,52.2,29.92,North,9,1.1,1.1,90,0.00,OVC,,0.00,197.0,WeatherDisplay:10.37,2013-07-28 14:39:00,
2013-07-28 09:44:00,55.4,52.2,29.92,NNW,345,2.3,2.3,89,0.00,OVC,,0.00,251.0,WeatherDisplay:10.37,2013-07-28 14:44:00,
2013-07-28 09:49:00,55.6,51.8,29.92,NE,54,2.3,2.3,87,0.00,OVC,,0.00,142.0,WeatherDisplay:10.37,2013-07-28 14:49:00,
2013-07-28 09:54:00,55.6,52.1,29.92,North,5,2.3,2.3,88,0.00,OVC,,0.00,155.0,WeatherDisplay:10.37,2013-07-28 14:54:00,
2013-07-28 09:59:00,55.5,51.7,29.92,SSW,207,2.3,2.3,87,0.00,OVC,,0.00,169.0,WeatherDisplay:10.37,2013-07-28 14:59:00,
2013-07-28 10:04:00,55.5,51.7,29.93,West,263,2.3,2.3,87,0.00,OVC,,0.00,127.0,WeatherDisplay:10.37,2013-07-28 15:04:00,
2013-07-28 10:09:00,55.6,52.1,29.93,SW,214,3.5,3.5,88,0.00,OVC,,0.00,181.0,WeatherDisplay:10.37,2013-07-28 15:09:00,
2013-07-28 10:14:00,55.7,51.9,29.93,NNE,26,3.5,3.5,87,0.00,OVC,,0.00,167.0,WeatherDisplay:10.37,2013-07-28 15:14:00,
2013-07-28 10:19:00,55.7,51.9,29.93,NE,42,2.3,2.3,87,0.00,OVC,,0.00,120.0,WeatherDisplay:10.37,2013-07-28 15:19:00,
2013-07-28 10:24:00,55.7,52.2,29.94,North,360,2.3,2.3,88,0.00,OVC,,0.00,134.0,WeatherDisplay:10.37,2013-07-28 15:24:00,
2013-07-28 10:29:00,55.8,52.6,29.93,NNE,31,2.3,2.3,89,0.00,OVC,,0.00,214.0,WeatherDisplay:10.37,2013-07-28 15:29:00,
2013-07-28 10:34:00,55.9,52.4,29.93,ENE,61,1.1,1.1,88,0.00,OVC,,0.00,132.0,WeatherDisplay:10.37,2013-07-28 15:34:00,
2013-07-28 10:39:00,56.0,52.5,29.93,NNW,333,1.1,1.1,88,0.00,OVC,,0.00,141.0,WeatherDisplay:10.37,2013-07-28 15:39:00,
2013-07-28 10:44:00,55.9,52.4,29.94,SW,232,1.1,1.1,88,0.00,OVC,,0.00,158.0,WeatherDisplay:10.37,2013-07-28 15:44:00,
2013-07-28 10:49:00,55.7,52.2,29.94,NNE,29,1.1,1.1,88,0.00,OVC,,0.00,137.0,WeatherDisplay:10.37,2013-07-28 15:49:00,
2013-07-28 10:54:00,55.7,51.9,29.94,West,265,3.5,3.5,87,0.00,OVC,,0.00,176.0,WeatherDisplay:10.37,2013-07-28 15:54:00,
2013-07-28 10:59:00,55.7,52.2,29.94,NE,37,2.3,2.3,88,0.00,OVC,,0.00,162.0,WeatherDisplay:10.37,2013-07-28 15:59:00,
2013-07-28 11:04:00,55.9,51.8,29.94,NNE,29,3.5,3.5,86,0.00,OVC,,0.00,130.0,WeatherDisplay:10.37,2013-07-28 16:04:00,
2013-07-28 11:09:00,55.9,51.8,29.94,West,275,3.5,3.5,86,0.00,OVC,,0.00,139.0,WeatherDisplay:10.37,2013-07-28 16:09:00,
2013-07-28 11:14:00,56.0,51.9,29.94,WNW,286,3.5,3.5,86,0.00,OVC,,0.00,234.0,WeatherDisplay:10.37,2013-07-28 16:14:00,
2013-07-28 11:19:00,56.2,52.1,29.94,NNE,24,3.5,3.5,86,0.00,OVC,,0.00,274.0,WeatherDisplay:10.37,2013-07-28 16:19:00,
2013-07-28 11:24:00,56.6,52.5,29.94,NNE,23,5.8,5.8,86,0.00,OVC,,0.00,306.0,WeatherDisplay:10.37,2013-07-28 16:24:00,
2013-07-28 11:29:00,56.9,52.8,29.94,NE,44,3.5,3.5,86,0.00,OVC,,0.00,250.0,WeatherDisplay:10.37,2013-07-28 16:29:00,
2013-07-28 11:34:00,57.4,53.2,29.94,South,187,2.3,2.3,86,0.00,OVC,,0.00,283.0,WeatherDisplay:10.37,2013-07-28 16:34:00,
2013-07-28 11:39:00,57.8,53.3,29.94,NE,37,4.6,4.6,85,0.00,OVC,,0.00,172.0,WeatherDisplay:10.37,2013-07-28 16:39:00,
2013-07-28 11:44:00,58.0,52.9,29.95,NNE,13,4.6,4.6,83,0.00,OVC,,0.00,218.0,WeatherDisplay:10.37,2013-07-28 16:44:00,
2013-07-28 11:49:00,57.8,52.7,29.95,North,5,6.9,6.9,83,0.00,OVC,,0.00,139.0,WeatherDisplay:10.37,2013-07-28 16:49:00,
2013-07-28 11:54:00,57.5,52.7,29.95,North,355,2.3,2.3,84,0.00,OVC,,0.00,149.0,WeatherDisplay:10.37,2013-07-28 16:54:00,
2013-07-28 11:59:00,57.1,52.0,29.95,South,173,2.0,2.0,83,0.00,OVC,,0.00,134.0,WeatherDisplay:10.37,2013-07-28 16:59:00,
2013-07-28 12:04:00,56.9,52.4,29.95,NNE,30,2.0,2.0,85,0.00,OVC,,0.00,230.0,WeatherDisplay:10.37,2013-07-28 17:04:00,
2013-07-28 12:09:00,56.9,52.4,29.95,North,11,3.5,3.5,85,0.00,OVC,,0.00,118.0,WeatherDisplay:10.37,2013-07-28 17:09:00,
2013-07-28 12:14:00,56.8,52.3,29.95,NE,48,3.5,3.5,85,0.00,OVC,,0.00,116.0,WeatherDisplay:10.37,2013-07-28 17:14:00,
2013-07-28 12:19:00,56.6,52.5,29.96,SSW,211,3.5,3.5,86,0.00,OVC,,0.00,243.0,WeatherDisplay:10.37,2013-07-28 17:19:00,
2013-07-28 12:24:00,56.9,53.1,29.95,WNW,284,3.5,3.5,87,0.00,OVC,,0.00,403.0,WeatherDisplay:10.37,2013-07-28 17:24:00,
2013-07-28 12:29:00,57.6,53.1,29.95,North,11,5.8,5.8,85,0.00,OVC,,0.00,276.0,WeatherDisplay:10.37,2013-07-28 17:29:00,
2013-07-28 12:34:00,57.9,53.1,29.95,SSW,210,4.0,4.0,84,0.00,OVC,,0.00,262.0,WeatherDisplay:10.37,2013-07-28 17:34:00,
2013-07-28 12:39:00,58.1,53.3,29.95,NW,321,2.3,2.3,84,0.00,OVC,,0.00,221.0,WeatherDisplay:10.37,2013-07-28 17:39:00,
2013-07-28 12:44:00,58.1,53.0,29.94,WSW,248,1.1,1.5,83,0.00,OVC,,0.00,290.0,WeatherDisplay:10.37,2013-07-28 17:44:00,
2013-07-28 12:49:00,58.7,53.5,29.94,NNE,32,3.5,3.5,83,0.00,OVC,,0.00,475.0,WeatherDisplay:10.37,2013-07-28 17:49:00,
2013-07-28 12:54:00,59.3,53.5,29.94,West,273,7.0,7.0,81,0.00,OVC,,0.00,327.0,WeatherDisplay:10.37,2013-07-28 17:54:00,
2013-07-28 12:59:00,59.2,53.4,29.94,ENE,68,3.5,3.5,81,0.01,RA,,0.01,401.0,WeatherDisplay:10.37,2013-07-28 17:59:00,
2013-07-28 13:04:00,59.3,53.8,29.95,SSE,151,4.6,4.6,82,0.01,RA,,0.01,439.0,WeatherDisplay:10.37,2013-07-28 18:04:00,
2013-07-28 13:10:00,59.5,53.3,29.95,ENE,63,3.5,3.5,80,0.01,OVC,,0.01,457.0,WeatherDisplay:10.37,2013-07-28 18:10:00,
2013-07-28 13:15:00,59.9,54.1,29.95,SSW,207,2.3,2.3,81,0.01,OVC,,0.01,315.0,WeatherDisplay:10.37,2013-07-28 18:15:00,
2013-07-28 13:20:00,60.0,53.8,29.95,NE,49,1.1,1.1,80,0.01,OVC,,0.01,211.0,WeatherDisplay:10.37,2013-07-28 18:20:00,
2013-07-28 13:25:00,59.9,53.0,29.95,East,81,4.6,4.6,78,0.01,OVC,,0.01,292.0,WeatherDisplay:10.37,2013-07-28 18:25:00,
2013-07-28 13:30:00,60.3,53.8,29.95,NW,304,6.9,6.9,79,0.01,OVC,,0.01,844.0,WeatherDisplay:10.37,2013-07-28 18:30:00,
2013-07-28 13:35:00,61.1,54.2,29.95,North,360,3.5,3.5,78,0.01,OVC,,0.01,844.0,WeatherDisplay:10.37,2013-07-28 18:35:00,
2013-07-28 13:40:00,61.4,53.8,29.95,NE,43,2.3,2.3,76,0.01,OVC,,0.01,207.0,WeatherDisplay:10.37,2013-07-28 18:40:00,
2013-07-28 13:45:00,61.3,54.0,29.95,NE,42,3.5,3.5,77,0.01,OVC,,0.01,297.0,WeatherDisplay:10.37,2013-07-28 18:45:00,
2013-07-28 13:50:00,61.0,53.4,29.96,SSW,209,3.5,3.5,76,0.01,OVC,,0.01,336.0,WeatherDisplay:10.37,2013-07-28 18:50:00,
2013-07-28 13:55:00,60.7,53.4,29.96,North,5,8.1,8.1,77,0.01,OVC,,0.01,225.0,WeatherDisplay:10.37,2013-07-28 18:55:00,
2013-07-28 14:00:00,60.4,53.9,29.96,North,10,5.0,5.0,79,0.00,OVC,,0.01,223.0,WeatherDisplay:10.37,2013-07-28 19:00:00,
2013-07-28 14:05:00,60.2,53.3,29.95,ESE,119,8.1,8.1,78,0.00,OVC,,0.01,330.0,WeatherDisplay:10.37,2013-07-28 19:05:00,
2013-07-28 14:10:00,60.2,53.0,29.96,NNW,346,4.6,4.6,77,0.00,OVC,,0.01,237.0,WeatherDisplay:10.37,2013-07-28 19:10:00,
2013-07-28 14:15:00,60.2,53.0,29.96,North,349,6.9,6.9,77,0.00,OVC,,0.01,246.0,WeatherDisplay:10.37,2013-07-28 19:15:00,
2013-07-28 14:20:00,60.0,52.4,29.96,WSW,237,8.1,8.1,76,0.00,OVC,,0.01,155.0,WeatherDisplay:10.37,2013-07-28 19:20:00,
2013-07-28 14:25:00,59.6,53.1,29.96,NW,306,1.1,1.1,79,0.00,OVC,,0.01,162.0,WeatherDisplay:10.37,2013-07-28 19:25:00,
2013-07-28 14:30:00,59.6,53.4,29.96,NNW,329,2.3,2.3,80,0.00,OVC,,0.01,171.0,WeatherDisplay:10.37,2013-07-28 19:30:00,
2013-07-28 14:35:00,59.5,53.0,29.96,NE,47,3.5,3.5,79,0.00,OVC,,0.01,142.0,WeatherDisplay:10.37,2013-07-28 19:35:00,
2013-07-28 14:40:00,59.5,53.3,29.96,South,178,1.1,1.1,80,0.00,OVC,,0.01,167.0,WeatherDisplay:10.37,2013-07-28 19:40:00,
2013-07-28 14:45:00,59.5,53.0,29.97,ENE,71,1.1,1.1,79,0.00,OVC,,0.01,62.0,WeatherDisplay:10.37,2013-07-28 19:45:00,
2013-07-28 14:50:00,59.3,53.1,29.97,NW,324,2.3,2.3,80,0.00,OVC,,0.01,46.0,WeatherDisplay:10.37,2013-07-28 19:50:00,
2013-07-28 14:55:00,59.1,52.9,29.97,ESE,119,3.5,3.5,80,0.00,OVC,,0.01,49.0,WeatherDisplay:10.37,2013-07-28 19:55:00,
2013-07-28 15:00:00,59.0,52.8,29.97,NNE,22,2.3,2.3,80,0.00,OVC,,0.01,54.0,WeatherDisplay:10.37,2013-07-28 20:00:00,
2013-07-28 15:05:00,58.9,53.4,29.97,SSW,201,1.0,1.0,82,0.00,OVC,,0.01,51.0,WeatherDisplay:10.37,2013-07-28 20:05:00,
2013-07-28 15:10:00,58.8,53.0,29.97,NW,315,3.5,3.5,81,0.00,OVC,,0.01,51.0,WeatherDisplay:10.37,2013-07-28 20:10:00,
2013-07-28 15:15:00,58.7,53.2,29.97,WSW,252,2.0,2.0,82,0.00,OVC,,0.01,47.0,WeatherDisplay:10.37,2013-07-28 20:15:00,
2013-07-28 15:20:00,58.7,53.5,29.97,SSW,203,1.0,1.0,83,0.00,OVC,,0.01,40.0,WeatherDisplay:10.37,2013-07-28 20:20:00,
2013-07-28 15:25:00,58.7,53.5,29.98,West,265,1.1,1.1,83,0.00,OVC,,0.01,40.0,WeatherDisplay:10.37,2013-07-28 20:25:00,
2013-07-28 15:30:00,58.7,53.5,29.98,NE,56,1.0,1.0,83,0.00,OVC,,0.01,46.0,WeatherDisplay:10.37,2013-07-28 20:30:00,
2013-07-28 15:35:00,58.7,53.5,29.98,West,271,1.1,1.1,83,0.00,OVC,,0.01,49.0,WeatherDisplay:10.37,2013-07-28 20:35:00,
2013-07-28 15:40:00,58.7,53.5,29.98,WNW,299,2.3,2.3,83,0.00,OVC,,0.01,74.0,WeatherDisplay:10.37,2013-07-28 20:40:00,
2013-07-28 15:45:00,58.7,53.5,29.98,SSW,194,3.5,3.5,83,0.00,OVC,,0.01,104.0,WeatherDisplay:10.37,2013-07-28 20:45:00,
2013-07-28 15:50:00,59.0,53.8,29.98,West,278,1.0,2.1,83,0.00,OVC,,0.01,271.0,WeatherDisplay:10.37,2013-07-28 20:50:00,
2013-07-28 15:55:00,59.5,54.0,29.98,North,360,4.6,4.6,82,0.00,OVC,,0.01,285.0,WeatherDisplay:10.37,2013-07-28 20:55:00,
2013-07-28 16:00:00,60.0,54.5,29.98,WNW,286,3.5,3.5,82,0.00,OVC,,0.01,251.0,WeatherDisplay:10.37,2013-07-28 21:00:00,
2013-07-28 16:05:00,60.3,54.1,29.97,NE,42,3.5,3.5,80,0.00,OVC,,0.01,169.0,WeatherDisplay:10.37,2013-07-28 21:05:00,
2013-07-28 16:10:00,60.5,54.6,29.97,NW,316,2.3,2.3,81,0.00,OVC,,0.01,204.0,WeatherDisplay:10.37,2013-07-28 21:10:00,
2013-07-28 16:15:00,60.8,54.2,29.97,West,264,5.8,5.8,79,0.00,OVC,,0.01,257.0,WeatherDisplay:10.37,2013-07-28 21:15:00,
2013-07-28 16:20:00,61.2,55.0,29.97,ENE,74,3.5,3.5,80,0.00,OVC,,0.01,258.0,WeatherDisplay:10.37,2013-07-28 21:20:00,
2013-07-28 16:25:00,61.7,54.8,29.98,NNW,327,5.8,5.8,78,0.00,OVC,,0.01,281.0,WeatherDisplay:10.37,2013-07-28 21:25:00,
2013-07-28 16:30:00,62.0,55.4,29.98,NNE,24,6.9,6.9,79,0.00,OVC,,0.01,396.0,WeatherDisplay:10.37,2013-07-28 21:30:00,
2013-07-28 16:35:00,62.4,55.1,29.98,West,265,3.5,3.5,77,0.00,OVC,,0.01,221.0,WeatherDisplay:10.37,2013-07-28 21:35:00,
2013-07-28 16:40:00,62.6,55.3,29.98,WSW,240,2.3,2.3,77,0.00,OVC,,0.01,113.0,WeatherDisplay:10.37,2013-07-28 21:40:00,
2013-07-28 16:45:00,62.5,54.8,29.98,WNW,289,3.5,3.5,76,0.00,OVC,,0.01,44.0,WeatherDisplay:10.37,2013-07-28 21:45:00,
2013-07-28 16:50:00,62.0,55.1,29.98,SSW,213,4.6,4.6,78,0.00,OVC,,0.01,32.0,WeatherDisplay:10.37,2013-07-28 21:50:00,
2013-07-28 16:55:00,61.5,54.6,29.99,WSW,250,2.3,2.3,78,0.00,OVC,,0.01,28.0,WeatherDisplay:10.37,2013-07-28 21:55:00,
2013-07-28 17:00:00,61.1,54.9,29.99,North,360,1.1,1.1,80,0.00,OVC,,0.01,37.0,WeatherDisplay:10.37,2013-07-28 22:00:00,
2013-07-28 17:05:00,60.7,54.5,29.99,NW,304,0.0,0.0,80,0.00,OVC,,0.01,39.0,WeatherDisplay:10.37,2013-07-28 22:05:00,
2013-07-28 17:10:00,60.6,54.7,29.99,NW,322,1.0,1.0,81,0.00,OVC,,0.01,54.0,WeatherDisplay:10.37,2013-07-28 22:10:00,
2013-07-28 17:15:00,60.5,55.0,29.99,WSW,247,0.0,0.0,82,0.00,OVC,,0.01,33.0,WeatherDisplay:10.37,2013-07-28 22:15:00,
2013-07-28 17:20:00,60.4,54.9,29.99,West,281,1.1,0.0,82,0.00,OVC,,0.01,46.0,WeatherDisplay:10.37,2013-07-28 22:20:00,
2013-07-28 17:25:00,60.4,55.2,29.99,West,281,0.0,0.0,83,0.00,OVC,,0.01,46.0,WeatherDisplay:10.37,2013-07-28 22:25:00,
2013-07-28 17:30:00,60.4,55.5,29.99,West,281,1.1,0.0,84,0.00,OVC,,0.01,35.0,WeatherDisplay:10.37,2013-07-28 22:30:00,
2013-07-28 17:36:00,60.3,55.4,29.99,West,281,1.1,0.0,84,0.00,OVC,,0.01,35.0,WeatherDisplay:10.37,2013-07-28 22:36:00,
2013-07-28 17:41:00,60.3,56.4,29.99,West,281,2.0,2.0,87,0.00,OVC,,0.01,60.0,WeatherDisplay:10.37,2013-07-28 22:41:00,
2013-07-28 17:46:00,60.1,55.9,29.99,West,267,2.3,2.3,86,0.00,OVC,,0.01,60.0,WeatherDisplay:10.37,2013-07-28 22:46:00,
2013-07-28 17:51:00,60.1,55.6,30.00,West,263,1.1,0.0,85,0.00,OVC,,0.01,40.0,WeatherDisplay:10.37,2013-07-28 22:51:00,
2013-07-28 17:56:00,60.1,55.6,29.99,WNW,294,3.5,3.5,85,0.00,OVC,,0.01,65.0,WeatherDisplay:10.37,2013-07-28 22:56:00,
2013-07-28 18:01:00,60.1,55.9,30.00,West,265,1.1,0.0,86,0.00,OVC,,0.01,62.0,WeatherDisplay:10.37,2013-07-28 23:01:00,
2013-07-28 18:06:00,60.2,56.3,30.00,WNW,287,2.3,0.0,87,0.00,-RA,,0.01,56.0,WeatherDisplay:10.37,2013-07-28 23:06:00,
2013-07-28 18:11:00,60.2,56.3,29.99,WSW,242,1.1,1.1,87,0.00,-RA,,0.01,91.0,WeatherDisplay:10.37,2013-07-28 23:11:00,
2013-07-28 18:16:00,60.3,56.4,29.99,WSW,242,0.0,0.0,87,0.00,-RA,,0.01,65.0,WeatherDisplay:10.37,2013-07-28 23:16:00,
2013-07-28 18:21:00,60.4,56.2,29.99,WSW,242,1.1,1.1,86,0.00,-RA,,0.01,44.0,WeatherDisplay:10.37,2013-07-28 23:21:00,
2013-07-28 18:26:00,60.4,56.5,29.99,WSW,242,0.0,0.0,87,0.00,-RA,,0.01,46.0,WeatherDisplay:10.37,2013-07-28 23:26:00,
2013-07-28 18:32:00,60.5,56.3,29.99,WSW,242,1.0,0.0,86,0.00,-RA,,0.01,37.0,WeatherDisplay:10.37,2013-07-28 23:32:00,
2013-07-28 18:37:00,60.5,56.3,29.99,WSW,242,0.0,0.0,86,0.00,-RA,,0.01,35.0,WeatherDisplay:10.37,2013-07-28 23:37:00,
2013-07-28 18:42:00,60.5,56.6,29.99,WSW,242,0.0,0.0,87,0.00,-RA,,0.01,21.0,WeatherDisplay:10.37,2013-07-28 23:42:00,
2013-07-28 18:47:00,60.5,56.3,30.00,West,277,3.5,3.5,86,0.00,-RA,,0.01,12.0,WeatherDisplay:10.37,2013-07-28 23:47:00,
2013-07-28 18:52:00,60.4,55.9,29.99,West,281,0.0,0.0,85,0.00,-RA,,0.01,9.0,WeatherDisplay:10.37,2013-07-28 23:52:00,
2013-07-28 18:57:00,60.4,56.8,30.00,West,281,1.0,1.0,88,0.00,-RA,,0.01,7.0,WeatherDisplay:10.37,2013-07-28 23:57:00,
2013-07-28 19:02:00,60.0,56.4,30.00,ESE,113,1.1,1.1,88,0.00,-RA,,0.01,7.0,WeatherDisplay:10.37,2013-07-29 00:02:00,
2013-07-28 19:07:00,59.5,56.6,30.00,ESE,113,1.1,0.0,90,0.00,OVC,,0.01,23.0,WeatherDisplay:10.37,2013-07-29 00:07:00,
2013-07-28 19:12:00,59.4,56.8,30.00,ESE,113,0.0,0.1,91,0.00,OVC,,0.01,23.0,WeatherDisplay:10.37,2013-07-29 00:12:00,
2013-07-28 19:17:00,59.2,56.9,30.01,ESE,115,0.0,0.0,92,0.00,OVC,,0.01,23.0,WeatherDisplay:10.37,2013-07-29 00:17:00,
2013-07-28 19:22:00,59.1,56.8,30.00,ESE,115,0.0,0.0,92,0.00,OVC,,0.01,16.0,WeatherDisplay:10.37,2013-07-29 00:22:00,
2013-07-28 19:27:00,59.1,56.8,30.00,ESE,115,0.0,0.0,92,0.00,OVC,,0.01,19.0,WeatherDisplay:10.37,2013-07-29 00:27:00,
2013-07-28 19:32:00,59.0,57.0,30.00,ESE,115,0.0,0.0,93,0.00,OVC,,0.01,14.0,WeatherDisplay:10.37,2013-07-29 00:32:00,
2013-07-28 19:33:00,59.0,57.0,30.00,ESE,115,0.0,0.0,93,0.00,OVC,,0.01,14.0,WeatherDisplay:10.37,2013-07-29 00:33:00,
2013-07-28 19:38:00,59.0,57.0,30.00,ESE,115,0.0,0.0,93,0.00,OVC,,0.01,14.0,WeatherDisplay:10.37,2013-07-29 00:38:00,
2013-07-28 19:43:00,58.9,56.9,30.00,ESE,115,0.0,0.0,93,0.00,OVC,,0.01,16.0,WeatherDisplay:10.37,2013-07-29 00:43:00,
2013-07-28 19:48:00,58.9,56.9,30.00,ESE,115,0.0,0.0,93,0.00,OVC,,0.01,16.0,WeatherDisplay:10.37,2013-07-29 00:48:00,
2013-07-28 19:53:00,58.9,56.9,30.00,ESE,115,0.0,0.0,93,0.00,OVC,,0.01,16.0,WeatherDisplay:10.37,2013-07-29 00:53:00,
2013-07-28 19:58:00,58.8,56.8,30.01,ESE,115,0.0,0.0,93,0.00,OVC,,0.01,11.0,WeatherDisplay:10.37,2013-07-29 00:58:00,
2013-07-28 20:03:00,58.8,57.1,30.01,ESE,115,0.0,0.0,94,0.00,OVC,,0.01,9.0,WeatherDisplay:10.37,2013-07-29 01:03:00,
2013-07-28 20:08:00,58.7,57.0,30.01,ESE,115,0.0,0.0,94,0.00,OVC,,0.01,5.0,WeatherDisplay:10.37,2013-07-29 01:08:00,
2013-07-28 20:13:00,58.6,56.9,30.01,ESE,115,0.0,0.0,94,0.00,OVC,,0.01,5.0,WeatherDisplay:10.37,2013-07-29 01:13:00,
2013-07-28 20:18:00,58.6,56.6,30.01,ESE,115,0.0,0.0,93,0.00,OVC,,0.01,0.0,WeatherDisplay:10.37,2013-07-29 01:18:00,
2013-07-28 20:23:00,58.5,56.8,30.01,ESE,115,0.0,0.0,94,0.00,OVC,,0.01,0.0,WeatherDisplay:10.37,2013-07-29 01:23:00,
2013-07-28 20:29:00,58.4,56.7,30.01,ESE,117,1.0,0.0,94,0.00,OVC,,0.01,0.0,WeatherDisplay:10.37,2013-07-29 01:29:00,
2013-07-28 20:34:00,58.3,56.6,30.01,ESE,117,0.0,0.0,94,0.00,OVC,,0.01,0.0,WeatherDisplay:10.37,2013-07-29 01:34:00,
2013-07-28 20:39:00,58.2,56.5,30.01,ESE,117,0.0,0.0,94,0.00,OVC,,0.01,0.0,WeatherDisplay:10.37,2013-07-29 01:39:00,
2013-07-28 20:45:00,58.1,56.4,30.02,ESE,117,0.0,0.0,94,0.00,OVC,,0.01,0.0,WeatherDisplay:10.37,2013-07-29 01:45:00,
2013-07-28 20:50:00,58.0,56.3,30.01,ESE,117,0.0,0.0,94,0.00,OVC,,0.01,0.0,WeatherDisplay:10.37,2013-07-29 01:50:00,
2013-07-28 20:55:00,57.8,56.1,30.02,ESE,117,0.0,0.0,94,0.00,OVC,,0.01,0.0,WeatherDisplay:10.37,2013-07-29 01:55:00,
2013-07-28 21:00:00,57.7,56.0,30.02,ESE,117,0.0,0.0,94,0.00,OVC,,0.01,0.0,WeatherDisplay:10.37,2013-07-29 02:00:00,
2013-07-28 21:05:00,57.6,55.9,30.02,ESE,117,0.0,0.0,94,0.00,OVC,,0.01,0.0,WeatherDisplay:10.37,2013-07-29 02:05:00,
2013-07-28 21:10:00,57.4,55.7,30.02,ESE,117,0.0,0.0,94,0.00,OVC,,0.01,0.0,WeatherDisplay:10.37,2013-07-29 02:10:00,
2013-07-28 21:15:00,57.2,55.5,30.03,ESE,117,0.0,0.0,94,0.00,OVC,,0.01,0.0,WeatherDisplay:10.37,2013-07-29 02:15:00,
2013-07-28 21:20:00,57.2,55.5,30.03,ESE,117,0.0,0.0,94,0.00,OVC,,0.01,0.0,WeatherDisplay:10.37,2013-07-29 02:20:00,
2013-07-28 21:27:00,57.0,55.3,30.04,ESE,117,0.0,0.0,94,0.00,OVC,,0.01,0.0,WeatherDisplay:10.37,2013-07-29 02:27:00,
2013-07-28 21:32:00,56.8,55.1,30.04,ESE,117,0.0,0.0,94,0.00,OVC,,0.01,0.0,WeatherDisplay:10.37,2013-07-29 02:32:00,
2013-07-28 21:37:00,56.6,54.9,30.04,ESE,117,0.0,0.0,94,0.00,OVC,,0.01,0.0,WeatherDisplay:10.37,2013-07-29 02:37:00,
2013-07-28 21:42:00,56.4,55.0,30.04,ESE,117,1.1,0.0,95,0.00,OVC,,0.01,0.0,WeatherDisplay:10.37,2013-07-29 02:42:00,
2013-07-28 21:47:00,56.3,54.9,30.04,ESE,117,0.0,0.0,95,0.00,OVC,,0.01,0.0,WeatherDisplay:10.37,2013-07-29 02:47:00,
2013-07-28 21:53:00,56.1,54.7,30.04,ESE,117,0.0,0.0,95,0.00,OVC,,0.01,0.0,WeatherDisplay:10.37,2013-07-29 02:53:00,
2013-07-28 21:58:00,55.9,54.2,30.04,ESE,117,0.0,0.0,94,0.00,OVC,,0.01,0.0,WeatherDisplay:10.37,2013-07-29 02:58:00,
2013-07-28 22:03:00,55.6,53.9,30.05,ESE,117,0.0,0.0,94,0.00,OVC,,0.01,0.0,WeatherDisplay:10.37,2013-07-29 03:03:00,
2013-07-28 22:08:00,55.4,53.7,30.05,ESE,117,0.0,0.0,94,0.00,OVC,,0.01,0.0,WeatherDisplay:10.37,2013-07-29 03:08:00,
2013-07-28 22:13:00,55.2,53.5,30.05,ESE,117,0.0,0.0,94,0.00,OVC,,0.01,0.0,WeatherDisplay:10.37,2013-07-29 03:13:00,
2013-07-28 22:18:00,55.0,53.3,30.05,ESE,117,0.0,0.0,94,0.00,OVC,,0.01,0.0,WeatherDisplay:10.37,2013-07-29 03:18:00,
2013-07-28 22:23:00,54.9,53.5,30.05,ESE,117,0.0,0.0,95,0.00,OVC,,0.01,0.0,WeatherDisplay:10.37,2013-07-29 03:23:00,
2013-07-28 22:29:00,54.9,53.5,30.05,ESE,117,0.0,0.0,95,0.00,OVC,,0.01,0.0,WeatherDisplay:10.37,2013-07-29 03:29:00,
2013-07-28 22:34:00,54.8,53.4,30.05,ESE,117,0.0,0.0,95,0.00,OVC,,0.01,0.0,WeatherDisplay:10.37,2013-07-29 03:34:00,
2013-07-28 22:40:00,54.7,53.3,30.04,ESE,117,0.0,0.0,95,0.00,OVC,,0.01,0.0,WeatherDisplay:10.37,2013-07-29 03:40:00,
2013-07-28 22:45:00,54.6,53.2,30.04,ESE,117,0.0,0.0,95,0.00,OVC,,0.01,0.0,WeatherDisplay:10.37,2013-07-29 03:45:00,
2013-07-28 22:50:00,54.5,53.1,30.05,ESE,117,0.0,0.0,95,0.00,OVC,,0.01,0.0,WeatherDisplay:10.37,2013-07-29 03:50:00,
2013-07-28 22:55:00,54.3,52.9,30.05,ESE,117,0.0,0.0,95,0.00,OVC,,0.01,0.0,WeatherDisplay:10.37,2013-07-29 03:55:00,
2013-07-28 23:00:00,54.0,52.3,30.05,ESE,117,1.1,1.1,94,0.00,OVC,,0.01,0.0,WeatherDisplay:10.37,2013-07-29 04:00:00,
2013-07-28 23:01:00,54.0,52.3,30.05,ESE,117,1.1,1.1,94,0.00,OVC,,0.01,0.0,WeatherDisplay:10.37,2013-07-29 04:01:00,
2013-07-28 23:06:00,53.6,51.9,30.05,ESE,117,0.0,0.0,94,0.00,OVC,,0.01,0.0,WeatherDisplay:10.37,2013-07-29 04:06:00,
2013-07-28 23:11:00,53.5,51.8,30.05,ESE,117,0.0,0.0,94,0.00,OVC,,0.01,0.0,WeatherDisplay:10.37,2013-07-29 04:11:00,
2013-07-28 23:16:00,53.2,51.5,30.05,ESE,117,0.0,0.0,94,0.00,OVC,,0.01,0.0,WeatherDisplay:10.37,2013-07-29 04:16:00,
2013-07-28 23:22:00,52.9,51.2,30.05,ESE,117,0.0,0.0,94,0.00,OVC,,0.01,0.0,WeatherDisplay:10.37,2013-07-29 04:22:00,
2013-07-28 23:27:00,52.7,51.0,30.05,ESE,117,0.0,0.0,94,0.00,OVC,,0.01,0.0,WeatherDisplay:10.37,2013-07-29 04:27:00,
2013-07-28 23:32:00,52.5,50.8,30.04,ESE,117,0.0,0.0,94,0.00,OVC,,0.01,0.0,WeatherDisplay:10.37,2013-07-29 04:32:00,
2013-07-28 23:37:00,52.2,50.5,30.05,ESE,117,0.0,0.0,94,0.00,FEW,,0.01,0.0,WeatherDisplay:10.37,2013-07-29 04:37:00,
2013-07-28 23:42:00,51.9,50.2,30.05,ESE,117,0.0,0.0,94,0.00,FEW,,0.01,0.0,WeatherDisplay:10.37,2013-07-29 04:42:00,
2013-07-28 23:47:00,51.7,50.0,30.04,ESE,117,0.0,0.0,94,0.00,FEW,,0.01,0.0,WeatherDisplay:10.37,2013-07-29 04:47:00,
2013-07-28 23:52:00,51.4,49.7,30.04,ESE,117,0.0,0.0,94,0.00,CLR,,0.01,0.0,WeatherDisplay:10.37,2013-07-29 04:52:00,
2013-07-28 23:57:00,51.2,49.5,30.05,ESE,117,0.0,0.0,94,0.00,CLR,,0.01,0.0,WeatherDisplay:10.37,2013-07-29 04:57:00,